Overview Statistics Trail Chart Weather Telemetry Raw packets
 

This is the latest recevied weather packets stored in our database for station/object K0QED. If no packets are shown the sender has not sent any weather packets the latest 10 day(s).

<< 73 74 75 76 77 78 79 >>
Time Temp. Humidity Pressure Rain* Wind** Luminosity Snow
1788100430 17.22° C 64% 1026.2 hPa 0 mm - 98 W/m² -
1788100129 17.22° C 65% 1026.1 hPa 0 mm - 90 W/m² -
1788099825 16.67° C 67% 1025.9 hPa 0 mm - 94 W/m² -
1788099520 16.67° C 67% 1025.9 hPa 0 mm - 88 W/m² -
1788099215 16.67° C 67% 1025.9 hPa 0 mm - 82 W/m² -
1788098910 16.11° C 68% 1026 hPa 0 mm - 84 W/m² -
1788098605 16.11° C 69% 1026 hPa 0 mm - 83 W/m² -
1788098299 15.56° C 71% 1025.9 hPa 0 mm - 80 W/m² -
1788097995 15.56° C 72% 1025.9 hPa 0 mm - 69 W/m² -
1788097691 15° C 74% 1025.9 hPa 0 mm - 61 W/m² -
1788097390 15° C 71% 1025.7 hPa 0 mm - 50 W/m² -
1788097086 14.44° C 74% 1026 hPa 0 mm - 35 W/m² -
1788096782 14.44° C 72% 1026 hPa 0 mm - 35 W/m² -
1788096477 14.44° C 75% 1026.2 hPa 0 mm - 29 W/m² -
1788096173 13.89° C 75% 1026.1 hPa 0 mm - 20 W/m² -
1788095872 13.89° C 74% 1026.1 hPa 0 mm - 18 W/m² -
1788095566 13.89° C 75% 1025.6 hPa 0 mm - 16 W/m² -
1788095262 13.89° C 75% 1025.9 hPa 0 mm - 13 W/m² -
1788094956 13.89° C 73% 1026 hPa 0 mm - 10 W/m² -
1788094650 13.89° C 72% 1025.9 hPa 0 mm - 9 W/m² -
1788094345 13.89° C 71% 1025.9 hPa 0 mm - 7 W/m² -
1788094043 13.89° C 72% 1025.6 hPa 0 mm - 5 W/m² -
1788093738 13.89° C 71% 1025.7 hPa 0 mm - 3 W/m² -
1788093435 14.44° C 71% 1025.5 hPa 0 mm - 3 W/m² -
1788093131 14.44° C 71% 1025.5 hPa 0 mm - 0 W/m² -

* Rain latest hour (hover to see other rain measurements)
** Current wind speed in m/s (hover to see current wind gust speed)